スペースウォッチ彗星

125P/Spacewatch (2013)

English version
Home page
Updated on April 29, 2013

---------------------------------------------------------------------

・ プロフィール

・ 写真集

・ 軌道要素

The following orbital elements are taken from MPC 69908:

Epoch 2013 Jan. 28.0 TT = JDT 2456320.5
T 2013 Feb. 16.9812 TT                                  MPC
q   1.525464             (2000.0)            P               Q
n   0.1781525      Peri.   87.2273      -0.4868692      +0.8699661
a   3.128058       Node   153.1890      -0.8543799      -0.4556922
e   0.512329       Incl.    9.9858      -0.1816405      -0.1884242
P   5.53
From 337 observations 1991-2007, mean residual 0".6.  Nongravitational
     parameters A1 = +0.03, A2 = +0.0069.

・ 星図

・ 光度変化

        m1 = 14.0 + 5 logΔ + 13.0 log r          [   ,-55]  (              〜2012年12月23日)
        m1 =  6.4 + 5 logΔ + 45   log r(t - 20)  [-55,112]  (2012年12月23日〜2013年 6月 8日)
        m1 = 14.0 + 5 logΔ + 13.0 log r          [112,   ]  (2013年 6月 8日〜              )

---------------------------------------------------------------------

軌道要素はMPCのEphemerides and Orbital Elementsに掲載されたものです。
星図はステラナビゲータ Ver.8 (アストロアーツ) で作成したものです。
光度グラフはComet for Windowsで作成したものです。

---------------------------------------------------------------------

Copyright(C) Seiichi Yoshida (comet@aerith.net). All rights reserved.